SQ6RR-11 Weather Reports


time (UTC)temp
F
wind
direction
speed
knots
gust
knots
rain 1hr
in
rain 24hr
in
rain mn
in
humidity
%
barometer
mb
20260506161156 65 0 0.0 0.0 0.00 0.00 0.00 52 1006.9
20260506160722 66 0 0.0 0.0 0.00 0.00 0.00 53 1006.9
20260506160254 67 0 0.0 0.0 0.00 0.00 0.00 51 1007.0
20260506155835 66 0 0.0 0.0 0.00 0.00 0.00 47 1007.0
20260506155414 67 0 0.0 0.0 0.00 0.00 0.00 44 1007.1
20260506155005 68 0 0.0 0.0 0.00 0.00 0.00 38 1007.1
20260506154547 69 0 0.0 0.0 0.00 0.00 0.00 33 1006.9
20260506154111 73 0 0.0 0.0 0.00 0.00 0.00 29 1006.8
20260506153632 74 0 0.0 0.0 0.00 0.00 0.00 29 1006.7
20260506153207 75 0 0.0 0.0 0.00 0.00 0.00 26 1006.6
20260506152737 77 0 0.0 0.0 0.00 0.00 0.00 24 1006.6
20260506152323 78 0 0.0 0.0 0.00 0.00 0.00 24 1006.6
20260506151853 80 0 0.0 0.0 0.00 0.00 0.00 23 1006.6
20260506151427 81 0 0.0 0.0 0.00 0.00 0.00 22 1006.6
20260506151003 83 0 0.0 0.0 0.00 0.00 0.00 21 1006.6
20260506150542 84 0 0.0 0.0 0.00 0.00 0.00 21 1006.6
20260506150122 84 0 0.0 0.0 0.00 0.00 0.00 23 1006.7
20260506145642 82 0 0.0 0.0 0.00 0.00 0.00 24 1006.7
20260506145222 80 0 0.0 0.0 0.00 0.00 0.00 23 1006.9
20260506144747 79 0 0.0 0.0 0.00 0.00 0.00 25 1007.0
20260506144312 78 0 0.0 0.0 0.00 0.00 0.00 25 1007.1
20260506143850 77 0 0.0 0.0 0.00 0.00 0.00 25 1007.0
20260506143414 77 0 0.0 0.0 0.00 0.00 0.00 23 1007.0
20260506142937 79 0 0.0 0.0 0.00 0.00 0.00 23 1007.0
20260506142518 80 0 0.0 0.0 0.00 0.00 0.00 25 1007.0
20260506142042 80 0 0.0 0.0 0.00 0.00 0.00 25 1007.0
20260506141616 81 0 0.0 0.0 0.00 0.00 0.00 25 1007.0
20260506141142 79 0 0.0 0.0 0.00 0.00 0.00 27 1007.0
20260506140712 80 0 0.0 0.0 0.00 0.00 0.00 28 1007.1
20260506140252 76 0 0.0 0.0 0.00 0.00 0.00 28 1007.2
20260506135827 77 0 0.0 0.0 0.00 0.00 0.00 27 1007.3
20260506135347 77 0 0.0 0.0 0.00 0.00 0.00 26 1007.4
20260506134927 78 0 0.0 0.0 0.00 0.00 0.00 28 1007.4
20260506134510 78 0 0.0 0.0 0.00 0.00 0.00 30 1007.5
20260506134052 76 0 0.0 0.0 0.00 0.00 0.00 30 1007.5
20260506133610 76 0 0.0 0.0 0.00 0.00 0.00 31 1007.6
20260506133142 75 0 0.0 0.0 0.00 0.00 0.00 33 1007.6
20260506132717 74 0 0.0 0.0 0.00 0.00 0.00 34 1007.6
20260506132241 71 0 0.0 0.0 0.00 0.00 0.00 34 1007.6
20260506131757 71 0 0.0 0.0 0.00 0.00 0.00 35 1007.6
20260506131321 72 0 0.0 0.0 0.00 0.00 0.00 34 1007.7
20260506130832 72 0 0.0 0.0 0.00 0.00 0.00 35 1007.6
20260506130412 72 0 0.0 0.0 0.00 0.00 0.00 35 1007.8
20260506125942 72 0 0.0 0.0 0.00 0.00 0.00 36 1007.9
20260506125504 72 0 0.0 0.0 0.00 0.00 0.00 36 1007.9
20260506125046 71 0 0.0 0.0 0.00 0.00 0.00 36 1007.9
20260506124608 72 0 0.0 0.0 0.00 0.00 0.00 35 1007.9
20260506124146 72 0 0.0 0.0 0.00 0.00 0.00 36 1007.9
20260506123734 73 0 0.0 0.0 0.00 0.00 0.00 36 1007.9
20260506123309 72 0 0.0 0.0 0.00 0.00 0.00 35 1008.0
20260506122837 72 0 0.0 0.0 0.00 0.00 0.00 39 1008.0
20260506122404 72 0 0.0 0.0 0.00 0.00 0.00 40 1008.0
20260506121942 69 0 0.0 0.0 0.00 0.00 0.00 42 1008.0
20260506121509 68 0 0.0 0.0 0.00 0.00 0.00 43 1008.1
20260506121101 68 0 0.0 0.0 0.00 0.00 0.00 42 1008.2
20260506120637 67 0 0.0 0.0 0.00 0.00 0.00 42 1008.3
20260506120157 67 0 0.0 0.0 0.00 0.00 0.00 42 1008.2
20260506115727 67 0 0.0 0.0 0.00 0.00 0.00 41 1008.1
20260506115306 68 0 0.0 0.0 0.00 0.00 0.00 41 1008.0
20260506114846 68 0 0.0 0.0 0.00 0.00 0.00 42 1008.1
20260506114422 68 0 0.0 0.0 0.00 0.00 0.00 42 1008.1
20260506113937 68 0 0.0 0.0 0.00 0.00 0.00 42 1008.1
20260506113517 68 0 0.0 0.0 0.00 0.00 0.00 43 1008.0
20260506113041 68 0 0.0 0.0 0.00 0.00 0.00 44 1008.0
20260506112626 68 0 0.0 0.0 0.00 0.00 0.00 45 1008.0
20260506112201 67 0 0.0 0.0 0.00 0.00 0.00 45 1008.2
20260506111729 67 0 0.0 0.0 0.00 0.00 0.00 45 1008.2
20260506111237 67 0 0.0 0.0 0.00 0.00 0.00 47 1008.2
20260506110832 67 0 0.0 0.0 0.00 0.00 0.00 48 1008.1
20260506110406 65 0 0.0 0.0 0.00 0.00 0.00 48 1008.0
20260506105947 65 0 0.0 0.0 0.00 0.00 0.00 49 1008.0
20260506105524 64 0 0.0 0.0 0.00 0.00 0.00 47 1008.1
20260506105107 65 0 0.0 0.0 0.00 0.00 0.00 47 1008.1
20260506104652 66 0 0.0 0.0 0.00 0.00 0.00 49 1008.1
20260506104207 66 0 0.0 0.0 0.00 0.00 0.00 50 1008.1
20260506103727 64 0 0.0 0.0 0.00 0.00 0.00 50 1008.0
20260506103247 64 0 0.0 0.0 0.00 0.00 0.00 48 1008.1
20260506102816 65 0 0.0 0.0 0.00 0.00 0.00 49 1008.1
20260506102343 64 0 0.0 0.0 0.00 0.00 0.00 49 1008.2
20260506101941 66 0 0.0 0.0 0.00 0.00 0.00 51 1008.2
20260506101508 66 0 0.0 0.0 0.00 0.00 0.00 49 1008.1
20260506101046 65 0 0.0 0.0 0.00 0.00 0.00 50 1008.2
20260506100626 65 0 0.0 0.0 0.00 0.00 0.00 51 1008.0
20260506100152 64 0 0.0 0.0 0.00 0.00 0.00 51 1007.9
20260506095722 64 0 0.0 0.0 0.00 0.00 0.00 51 1007.8
20260506095249 63 0 0.0 0.0 0.00 0.00 0.00 51 1007.8
20260506094809 64 0 0.0 0.0 0.00 0.00 0.00 52 1007.9
20260506094352 64 0 0.0 0.0 0.00 0.00 0.00 54 1008.0
20260506093917 63 0 0.0 0.0 0.00 0.00 0.00 53 1008.0
20260506093502 63 0 0.0 0.0 0.00 0.00 0.00 53 1008.0
20260506093052 63 0 0.0 0.0 0.00 0.00 0.00 55 1008.0
20260506092636 63 0 0.0 0.0 0.00 0.00 0.00 55 1008.0
20260506092222 63 0 0.0 0.0 0.00 0.00 0.00 54 1008.0
20260506091737 63 0 0.0 0.0 0.00 0.00 0.00 53 1007.9
20260506091312 64 0 0.0 0.0 0.00 0.00 0.00 52 1007.9
20260506090853 64 0 0.0 0.0 0.00 0.00 0.00 55 1007.9
20260506090416 63 0 0.0 0.0 0.00 0.00 0.00 55 1007.9
20260506085951 62 0 0.0 0.0 0.00 0.00 0.00 54 1008.0
20260506085507 63 0 0.0 0.0 0.00 0.00 0.00 51 1008.0
20260506085102 64 0 0.0 0.0 0.00 0.00 0.00 52 1007.8
20260506084631 65 0 0.0 0.0 0.00 0.00 0.00 52 1007.7
20260506084142 65 0 0.0 0.0 0.00 0.00 0.00 56 1007.6
20260506083704 64 0 0.0 0.0 0.00 0.00 0.00 56 1007.7
20260506083237 64 0 0.0 0.0 0.00 0.00 0.00 55 1007.6
20260506082756 63 0 0.0 0.0 0.00 0.00 0.00 54 1007.7
20260506082327 63 0 0.0 0.0 0.00 0.00 0.00 53 1007.7
20260506081854 65 0 0.0 0.0 0.00 0.00 0.00 53 1007.6
20260506081412 64 0 0.0 0.0 0.00 0.00 0.00 57 1007.5
20260506080939 63 0 0.0 0.0 0.00 0.00 0.00 58 1007.5
20260506080502 62 0 0.0 0.0 0.00 0.00 0.00 58 1007.5
20260506073317 61 0 0.0 0.0 0.00 0.00 0.00 63 1007.5
20260506072837 61 0 0.0 0.0 0.00 0.00 0.00 64 1007.4
20260506072422 60 0 0.0 0.0 0.00 0.00 0.00 64 1007.3
20260506072002 60 0 0.0 0.0 0.00 0.00 0.00 66 1007.3
20260506071522 60 0 0.0 0.0 0.00 0.00 0.00 66 1007.2
20260506071102 59 0 0.0 0.0 0.00 0.00 0.00 66 1007.1
20260506070622 60 0 0.0 0.0 0.00 0.00 0.00 67 1007.2
20260506070151 60 0 0.0 0.0 0.00 0.00 0.00 67 1007.3
20260506062048 60 0 0.0 0.0 0.00 0.00 0.00 66 1007.0
20260506061616 60 0 0.0 0.0 0.00 0.00 0.00 66 1006.9
20260506061203 60 0 0.0 0.0 0.00 0.00 0.00 68 1006.9
20260506060742 59 0 0.0 0.0 0.00 0.00 0.00 67 1006.8
20260506060332 60 0 0.0 0.0 0.00 0.00 0.00 67 1006.8
20260506051416 57 0 0.0 0.0 0.00 0.00 0.00 75 1006.3
20260506050950 57 0 0.0 0.0 0.00 0.00 0.00 77 1006.1
20260506050520 57 0 0.0 0.0 0.00 0.00 0.00 77 1006.2
20260506044709 57 0 0.0 0.0 0.00 0.00 0.00 81 1005.9
20260506044229 57 0 0.0 0.0 0.00 0.00 0.00 81 1005.9
20260506043752 57 0 0.0 0.0 0.00 0.00 0.00 83 1005.8
20260506043338 56 0 0.0 0.0 0.00 0.00 0.00 82 1005.9
20260506042916 56 0 0.0 0.0 0.00 0.00 0.00 82 1006.0
20260506042448 56 0 0.0 0.0 0.00 0.00 0.00 81 1006.0
20260506042035 56 0 0.0 0.0 0.00 0.00 0.00 81 1005.8
20260506041606 56 0 0.0 0.0 0.00 0.00 0.00 81 1005.9
20260506041132 56 0 0.0 0.0 0.00 0.00 0.00 80 1005.8
20260506040657 56 0 0.0 0.0 0.00 0.00 0.00 80 1005.9
20260506040217 56 0 0.0 0.0 0.00 0.00 0.00 79 1005.8
20260506035751 57 0 0.0 0.0 0.00 0.00 0.00 78 1005.7
20260506035307 57 0 0.0 0.0 0.00 0.00 0.00 77 1005.6
20260506034852 57 0 0.0 0.0 0.00 0.00 0.00 76 1005.8
20260506034412 57 0 0.0 0.0 0.00 0.00 0.00 75 1005.8
20260506033941 58 0 0.0 0.0 0.00 0.00 0.00 75 1005.8
20260506033507 58 0 0.0 0.0 0.00 0.00 0.00 76 1005.8
20260506033032 58 0 0.0 0.0 0.00 0.00 0.00 77 1005.9
20260506032617 57 0 0.0 0.0 0.00 0.00 0.00 78 1005.8
20260506032142 57 0 0.0 0.0 0.00 0.00 0.00 80 1005.8
20260506031652 57 0 0.0 0.0 0.00 0.00 0.00 83 1005.9
20260506031217 57 0 0.0 0.0 0.00 0.00 0.00 86 1006.0
20260506030737 56 0 0.0 0.0 0.00 0.00 0.00 88 1005.9
20260506030302 56 0 0.0 0.0 0.00 0.00 0.00 90 1006.0
20260506025817 56 0 0.0 0.0 0.00 0.00 0.00 92 1005.9
20260506025405 57 0 0.0 0.0 0.00 0.00 0.00 92 1005.9
20260506024937 57 0 0.0 0.0 0.00 0.00 0.00 92 1005.9
20260506024454 56 0 0.0 0.0 0.00 0.00 0.00 93 1005.8
20260506024015 56 0 0.0 0.0 0.00 0.00 0.00 94 1005.9
20260506023557 56 0 0.0 0.0 0.00 0.00 0.00 94 1005.8
20260506023127 56 0 0.0 0.0 0.00 0.00 0.00 95 1005.7
20260506022645 56 0 0.0 0.0 0.00 0.00 0.00 95 1005.8
20260506022217 56 0 0.0 0.0 0.00 0.00 0.00 95 1005.8
20260506021757 56 0 0.0 0.0 0.00 0.00 0.00 94 1005.8
20260506021342 56 0 0.0 0.0 0.00 0.00 0.00 94 1005.9
20260506020907 56 0 0.0 0.0 0.00 0.00 0.00 94 1006.1
20260506020427 56 0 0.0 0.0 0.00 0.00 0.00 95 1006.1
20260506015947 56 0 0.0 0.0 0.00 0.00 0.00 95 1006.5
20260506015524 56 0 0.0 0.0 0.00 0.00 0.00 95 1006.7
20260506015056 56 0 0.0 0.0 0.00 0.00 0.00 95 1006.8
20260506014617 56 0 0.0 0.0 0.00 0.00 0.00 95 1006.9
20260506014132 56 0 0.0 0.0 0.00 0.00 0.00 96 1006.9
20260506013727 56 0 0.0 0.0 0.00 0.00 0.00 96 1006.9
20260506013312 56 0 0.0 0.0 0.00 0.00 0.00 96 1006.9
20260506012837 55 0 0.0 0.0 0.00 0.00 0.00 96 1007.0
20260506012432 55 0 0.0 0.0 0.00 0.00 0.00 96 1007.0
20260506012015 55 0 0.0 0.0 0.00 0.00 0.00 95 1006.9
20260506011552 55 0 0.0 0.0 0.00 0.00 0.00 94 1006.9
20260506011146 55 0 0.0 0.0 0.00 0.00 0.00 94 1006.8
20260506010717 55 0 0.0 0.0 0.00 0.00 0.00 94 1006.9
20260506010300 54 0 0.0 0.0 0.00 0.00 0.00 93 1006.8
20260506005852 54 0 0.0 0.0 0.00 0.00 0.00 93 1006.8
20260506005417 55 0 0.0 0.0 0.00 0.00 0.00 93 1006.9
20260506004952 55 0 0.0 0.0 0.00 0.00 0.00 93 1006.9
20260506004505 55 0 0.0 0.0 0.00 0.00 0.00 94 1006.9
20260506004047 55 0 0.0 0.0 0.00 0.00 0.00 94 1006.7
20260506003621 55 0 0.0 0.0 0.00 0.00 0.00 94 1006.7
20260506003207 55 0 0.0 0.0 0.00 0.00 0.00 94 1006.6
20260506002803 55 0 0.0 0.0 0.00 0.00 0.00 94 1006.6
20260506002322 55 0 0.0 0.0 0.00 0.00 0.00 94 1006.6
20260506001855 54 0 0.0 0.0 0.00 0.00 0.00 94 1006.5
20260506001427 55 0 0.0 0.0 0.00 0.00 0.00 93 1006.7
20260506000952 55 0 0.0 0.0 0.00 0.00 0.00 92 1006.6
20260506000521 55 0 0.0 0.0 0.00 0.00 0.00 91 1006.7
20260506000041 55 0 0.0 0.0 0.00 0.00 0.00 91 1006.8
20260505235617 55 0 0.0 0.0 0.00 0.00 0.00 91 1006.8
20260505235142 55 0 0.0 0.0 0.00 0.00 0.00 91 1007.0
20260505234732 55 0 0.0 0.0 0.00 0.00 0.00 91 1007.1
20260505234256 55 0 0.0 0.0 0.00 0.00 0.00 91 1007.2
20260505233831 56 0 0.0 0.0 0.00 0.00 0.00 91 1007.2
20260505233400 56 0 0.0 0.0 0.00 0.00 0.00 92 1007.2
20260505232922 56 0 0.0 0.0 0.00 0.00 0.00 92 1007.2
20260505232456 56 0 0.0 0.0 0.00 0.00 0.00 91 1007.2
20260505232017 56 0 0.0 0.0 0.00 0.00 0.00 91 1007.1
20260505231602 56 0 0.0 0.0 0.00 0.00 0.00 91 1007.0
20260505231140 56 0 0.0 0.0 0.00 0.00 0.00 91 1006.9
20260505230717 56 0 0.0 0.0 0.00 0.00 0.00 91 1006.8
20260505230257 56 0 0.0 0.0 0.00 0.00 0.00 90 1006.9
20260505225821 56 0 0.0 0.0 0.00 0.00 0.00 90 1006.9
20260505225402 56 0 0.0 0.0 0.00 0.00 0.00 90 1007.0
20260505224917 56 0 0.0 0.0 0.00 0.00 0.00 90 1007.0
20260505224512 56 0 0.0 0.0 0.00 0.00 0.00 90 1007.0
20260505224042 56 0 0.0 0.0 0.00 0.00 0.00 90 1007.0
20260505223622 56 0 0.0 0.0 0.00 0.00 0.00 90 1007.0
20260505223152 56 0 0.0 0.0 0.00 0.00 0.00 90 1007.1
20260505222722 56 0 0.0 0.0 0.00 0.00 0.00 90 1007.1
20260505222237 56 0 0.0 0.0 0.00 0.00 0.00 90 1007.2
20260505221810 56 0 0.0 0.0 0.00 0.00 0.00 89 1007.2
20260505221337 56 0 0.0 0.0 0.00 0.00 0.00 89 1007.3
20260505220921 56 0 0.0 0.0 0.00 0.00 0.00 89 1007.3
20260505220437 56 0 0.0 0.0 0.00 0.00 0.00 89 1007.4
20260505220007 55 0 0.0 0.0 0.00 0.00 0.00 88 1007.5
20260505215542 55 0 0.0 0.0 0.00 0.00 0.00 87 1007.5
20260505215112 55 0 0.0 0.0 0.00 0.00 0.00 86 1007.6
20260505214622 55 0 0.0 0.0 0.00 0.00 0.00 85 1007.6
20260505214142 55 0 0.0 0.0 0.00 0.00 0.00 85 1007.6
20260505213712 55 0 0.0 0.0 0.00 0.00 0.00 83 1007.6
20260505213237 55 0 0.0 0.0 0.00 0.00 0.00 82 1007.7
20260505212807 56 0 0.0 0.0 0.00 0.00 0.00 81 1007.7
20260505212332 56 0 0.0 0.0 0.00 0.00 0.00 80 1007.7
20260505211842 56 0 0.0 0.0 0.00 0.00 0.00 80 1007.8
20260505211412 57 0 0.0 0.0 0.00 0.00 0.00 80 1007.8
20260505210942 57 0 0.0 0.0 0.00 0.00 0.00 79 1007.8
20260505210504 58 0 0.0 0.0 0.00 0.00 0.00 78 1007.9
20260505210027 58 0 0.0 0.0 0.00 0.00 0.00 78 1007.9
20260505205612 59 0 0.0 0.0 0.00 0.00 0.00 78 1007.9
20260505205137 59 0 0.0 0.0 0.00 0.00 0.00 78 1008.0
20260505204717 59 0 0.0 0.0 0.00 0.00 0.00 78 1008.0
20260505204251 59 0 0.0 0.0 0.00 0.00 0.00 77 1008.0
20260505203822 60 0 0.0 0.0 0.00 0.00 0.00 77 1008.0
20260505203337 60 0 0.0 0.0 0.00 0.00 0.00 76 1008.0
20260505202917 60 0 0.0 0.0 0.00 0.00 0.00 76 1008.0
20260505202453 60 0 0.0 0.0 0.00 0.00 0.00 75 1008.0
20260505202026 60 0 0.0 0.0 0.00 0.00 0.00 75 1008.0
20260505201607 60 0 0.0 0.0 0.00 0.00 0.00 74 1008.0
20260505201151 60 0 0.0 0.0 0.00 0.00 0.00 74 1007.9
20260505200742 60 0 0.0 0.0 0.00 0.00 0.00 73 1007.9
20260505200300 61 0 0.0 0.0 0.00 0.00 0.00 73 1007.9
20260505195846 61 0 0.0 0.0 0.00 0.00 0.00 72 1007.9
20260505195417 61 0 0.0 0.0 0.00 0.00 0.00 72 1007.9
20260505195004 61 0 0.0 0.0 0.00 0.00 0.00 72 1007.9
20260505194537 61 0 0.0 0.0 0.00 0.00 0.00 72 1008.0
20260505194111 61 0 0.0 0.0 0.00 0.00 0.00 71 1007.8
20260505193702 61 0 0.0 0.0 0.00 0.00 0.00 71 1007.8
20260505193217 60 0 0.0 0.0 0.00 0.00 0.00 70 1007.7
20260505192757 61 0 0.0 0.0 0.00 0.00 0.00 70 1007.7
20260505192347 61 0 0.0 0.0 0.00 0.00 0.00 69 1007.8
20260505191905 62 0 0.0 0.0 0.00 0.00 0.00 69 1007.8
20260505191422 62 0 0.0 0.0 0.00 0.00 0.00 69 1007.8
20260505190942 62 0 0.0 0.0 0.00 0.00 0.00 69 1007.8
20260505190512 62 0 0.0 0.0 0.00 0.00 0.00 69 1007.9
20260505190047 62 0 0.0 0.0 0.00 0.00 0.00 69 1007.8
20260505185626 61 0 0.0 0.0 0.00 0.00 0.00 68 1007.8
20260505185157 62 0 0.0 0.0 0.00 0.00 0.00 67 1007.8
20260505184723 62 0 0.0 0.0 0.00 0.00 0.00 67 1007.8
20260505184251 62 0 0.0 0.0 0.00 0.00 0.00 66 1007.7
20260505183822 61 0 0.0 0.0 0.00 0.00 0.00 66 1007.7
20260505183330 62 0 0.0 0.0 0.00 0.00 0.00 65 1007.7
20260505182911 62 0 0.0 0.0 0.00 0.00 0.00 65 1007.8
20260505182437 62 0 0.0 0.0 0.00 0.00 0.00 64 1007.9
20260505182001 63 0 0.0 0.0 0.00 0.00 0.00 63 1007.9
20260505181523 63 0 0.0 0.0 0.00 0.00 0.00 63 1007.8
20260505181044 63 0 0.0 0.0 0.00 0.00 0.00 62 1007.8
20260505180617 64 0 0.0 0.0 0.00 0.00 0.00 61 1007.8
20260505180152 64 0 0.0 0.0 0.00 0.00 0.00 61 1007.9
20260505175657 64 0 0.0 0.0 0.00 0.00 0.00 61 1007.9
20260505175219 64 0 0.0 0.0 0.00 0.00 0.00 60 1007.9
20260505174737 64 0 0.0 0.0 0.00 0.00 0.00 60 1008.0
20260505174257 64 0 0.0 0.0 0.00 0.00 0.00 60 1008.0
20260505173831 65 0 0.0 0.0 0.00 0.00 0.00 59 1008.0
20260505173357 65 0 0.0 0.0 0.00 0.00 0.00 58 1008.0
20260505172911 65 0 0.0 0.0 0.00 0.00 0.00 57 1007.9
20260505172442 66 0 0.0 0.0 0.00 0.00 0.00 57 1007.8
20260505172005 66 0 0.0 0.0 0.00 0.00 0.00 57 1007.8
20260505171540 66 0 0.0 0.0 0.00 0.00 0.00 55 1007.8
20260505171054 67 0 0.0 0.0 0.00 0.00 0.00 53 1007.7
20260505170625 67 0 0.0 0.0 0.00 0.00 0.00 52 1007.7
20260505170158 67 0 0.0 0.0 0.00 0.00 0.00 51 1007.7
20260505165732 68 0 0.0 0.0 0.00 0.00 0.00 49 1007.6
20260505165306 68 0 0.0 0.0 0.00 0.00 0.00 48 1007.6
20260505164827 69 0 0.0 0.0 0.00 0.00 0.00 44 1007.4
20260505164402 70 0 0.0 0.0 0.00 0.00 0.00 40 1007.3
20260505163912 71 0 0.0 0.0 0.00 0.00 0.00 35 1007.2
20260505163440 72 0 0.0 0.0 0.00 0.00 0.00 35 1007.2
20260505163012 73 0 0.0 0.0 0.00 0.00 0.00 34 1007.1
20260505162541 73 0 0.0 0.0 0.00 0.00 0.00 33 1007.1
20260505162046 73 0 0.0 0.0 0.00 0.00 0.00 33 1007.2
20260505161637 74 0 0.0 0.0 0.00 0.00 0.00 34 1007.2